Year,Month,Day,Hour,Minute,Value (Times are PST for temperature in C)
2015,10,16,00,00,8.20
2015,10,16,00,01,8.20
2015,10,16,00,02,8.10
2015,10,16,00,03,8.10
2015,10,16,00,04,8.10
2015,10,16,00,05,8.10
2015,10,16,00,06,8.00
2015,10,16,00,07,8.00
2015,10,16,00,08,7.90
2015,10,16,00,09,7.90
2015,10,16,00,10,8.00
2015,10,16,00,11,8.00
2015,10,16,00,12,8.10
2015,10,16,00,13,8.10
2015,10,16,00,14,8.10
2015,10,16,00,15,8.10
2015,10,16,00,16,8.10
2015,10,16,00,17,8.10
2015,10,16,00,18,8.20
2015,10,16,00,19,8.20
2015,10,16,00,20,8.20
2015,10,16,00,21,8.20
2015,10,16,00,22,8.10
2015,10,16,00,23,8.10
2015,10,16,00,24,8.10
2015,10,16,00,25,8.10
2015,10,16,00,26,8.10
2015,10,16,00,27,8.10
2015,10,16,00,28,8.10
2015,10,16,00,29,8.00
2015,10,16,00,30,8.00
2015,10,16,00,31,8.00
2015,10,16,00,32,8.10
2015,10,16,00,33,8.10
2015,10,16,00,34,8.10
2015,10,16,00,35,8.10
2015,10,16,00,36,8.10
2015,10,16,00,37,8.10
2015,10,16,00,38,8.10
2015,10,16,00,39,8.00
2015,10,16,00,40,8.00
2015,10,16,00,41,8.00
2015,10,16,00,42,8.00
2015,10,16,00,43,8.00
2015,10,16,00,44,8.10
2015,10,16,00,45,8.10
2015,10,16,00,46,8.10
2015,10,16,00,47,8.10
2015,10,16,00,48,8.10
2015,10,16,00,49,8.20
2015,10,16,00,50,8.20
2015,10,16,00,51,8.10
2015,10,16,00,52,8.10
2015,10,16,00,53,8.10
2015,10,16,00,54,8.00
2015,10,16,00,55,8.00
2015,10,16,00,56,8.00
2015,10,16,00,57,8.00
2015,10,16,00,58,8.00
2015,10,16,00,59,8.00
2015,10,16,01,00,8.10
2015,10,16,01,01,8.10
2015,10,16,01,02,8.10
2015,10,16,01,03,8.10
2015,10,16,01,04,8.10
2015,10,16,01,05,8.10
2015,10,16,01,06,8.10
2015,10,16,01,07,8.10
2015,10,16,01,08,8.10
2015,10,16,01,09,8.00
2015,10,16,01,10,8.00
2015,10,16,01,11,8.00
2015,10,16,01,12,8.00
2015,10,16,01,13,8.00
2015,10,16,01,14,7.90
2015,10,16,01,15,7.90
2015,10,16,01,16,7.90
2015,10,16,01,17,8.00
2015,10,16,01,18,8.00
2015,10,16,01,19,8.00
2015,10,16,01,20,8.10
2015,10,16,01,21,8.10
2015,10,16,01,22,8.00
2015,10,16,01,23,8.00
2015,10,16,01,24,7.90
2015,10,16,01,25,7.90
2015,10,16,01,26,7.90
2015,10,16,01,27,7.90
2015,10,16,01,28,7.90
2015,10,16,01,29,7.80
2015,10,16,01,30,7.80
2015,10,16,01,31,7.80
2015,10,16,01,32,7.80
2015,10,16,01,33,7.80
2015,10,16,01,34,7.80
2015,10,16,01,35,7.70
2015,10,16,01,36,7.80
2015,10,16,01,37,7.80
2015,10,16,01,38,7.70
2015,10,16,01,39,7.70
2015,10,16,01,40,7.70
2015,10,16,01,41,7.70
2015,10,16,01,42,7.70
2015,10,16,01,43,7.70
2015,10,16,01,44,7.80
2015,10,16,01,45,7.80
2015,10,16,01,46,7.70
2015,10,16,01,47,7.70
2015,10,16,01,48,7.70
2015,10,16,01,49,7.70
2015,10,16,01,50,7.70
2015,10,16,01,51,7.70
2015,10,16,01,52,7.70
2015,10,16,01,53,7.70
2015,10,16,01,54,7.60
2015,10,16,01,55,7.60
2015,10,16,01,56,7.60
2015,10,16,01,57,7.60
2015,10,16,01,58,7.60
2015,10,16,01,59,7.60
2015,10,16,02,00,7.50
2015,10,16,02,01,7.50
2015,10,16,02,02,7.40
2015,10,16,02,03,7.40
2015,10,16,02,04,7.40
2015,10,16,02,05,7.40
2015,10,16,02,06,7.40
2015,10,16,02,07,7.30
2015,10,16,02,08,7.30
2015,10,16,02,09,7.30
2015,10,16,02,10,7.30
2015,10,16,02,11,7.40
2015,10,16,02,12,7.40
2015,10,16,02,13,7.40
2015,10,16,02,14,7.50
2015,10,16,02,15,7.60
2015,10,16,02,16,7.60
2015,10,16,02,17,7.60
2015,10,16,02,18,7.60
2015,10,16,02,19,7.60
2015,10,16,02,20,7.60
2015,10,16,02,21,7.60
2015,10,16,02,22,7.60
2015,10,16,02,23,7.60
2015,10,16,02,24,7.60
2015,10,16,02,25,7.50
2015,10,16,02,26,7.50
2015,10,16,02,27,7.50
2015,10,16,02,28,7.40
2015,10,16,02,29,7.40
2015,10,16,02,30,7.40
2015,10,16,02,31,7.50
2015,10,16,02,32,7.50
2015,10,16,02,33,7.50
2015,10,16,02,34,7.50
2015,10,16,02,35,7.40
2015,10,16,02,36,7.40
2015,10,16,02,37,7.40
2015,10,16,02,38,7.50
2015,10,16,02,39,7.50
2015,10,16,02,40,7.50
2015,10,16,02,41,7.50
2015,10,16,02,42,7.50
2015,10,16,02,43,7.60
2015,10,16,02,44,7.50
2015,10,16,02,45,7.50
2015,10,16,02,46,7.50
2015,10,16,02,47,7.50
2015,10,16,02,48,7.50
2015,10,16,02,49,7.50
2015,10,16,02,50,7.50
2015,10,16,02,51,7.40
2015,10,16,02,52,7.40
2015,10,16,02,53,7.40
2015,10,16,02,54,7.40
2015,10,16,02,55,7.40
2015,10,16,02,56,7.50
2015,10,16,02,57,7.50
2015,10,16,02,58,7.60
2015,10,16,02,59,7.60
2015,10,16,03,00,7.60
2015,10,16,03,01,7.50
2015,10,16,03,02,7.50
2015,10,16,03,03,7.50
2015,10,16,03,04,7.40
2015,10,16,03,05,7.40
2015,10,16,03,06,7.40
2015,10,16,03,07,7.40
2015,10,16,03,08,7.40
2015,10,16,03,09,7.40
2015,10,16,03,10,7.30
2015,10,16,03,11,7.30
2015,10,16,03,12,7.40
2015,10,16,03,13,7.40
2015,10,16,03,14,7.30
2015,10,16,03,15,7.30
2015,10,16,03,16,7.30
2015,10,16,03,17,7.30
2015,10,16,03,18,7.30
2015,10,16,03,19,7.30
2015,10,16,03,20,7.30
2015,10,16,03,21,7.20
2015,10,16,03,22,7.20
2015,10,16,03,23,7.20
2015,10,16,03,24,7.20
2015,10,16,03,25,7.20
2015,10,16,03,26,7.20
2015,10,16,03,27,7.20
2015,10,16,03,28,7.20
2015,10,16,03,29,7.20
2015,10,16,03,30,7.30
2015,10,16,03,31,7.30
2015,10,16,03,32,7.30
2015,10,16,03,33,7.30
2015,10,16,03,34,7.30
2015,10,16,03,35,7.20
2015,10,16,03,36,7.20
2015,10,16,03,37,7.20
2015,10,16,03,38,7.20
2015,10,16,03,39,7.20
2015,10,16,03,40,7.30
2015,10,16,03,41,7.30
2015,10,16,03,42,7.30
2015,10,16,03,43,7.30
2015,10,16,03,44,7.30
2015,10,16,03,45,7.30
2015,10,16,03,46,7.30
2015,10,16,03,47,7.20
2015,10,16,03,48,7.20
2015,10,16,03,49,7.20
2015,10,16,03,50,7.20
2015,10,16,03,51,7.20
2015,10,16,03,52,7.20
2015,10,16,03,53,7.20
2015,10,16,03,54,7.20
2015,10,16,03,55,7.30
2015,10,16,03,56,7.20
2015,10,16,03,57,7.20
2015,10,16,03,58,7.20
2015,10,16,03,59,7.20
2015,10,16,04,00,7.20
2015,10,16,04,01,7.20
2015,10,16,04,02,7.30
2015,10,16,04,03,7.30
2015,10,16,04,04,7.30
2015,10,16,04,05,7.30
2015,10,16,04,06,7.30
2015,10,16,04,07,7.20
2015,10,16,04,08,7.20
2015,10,16,04,09,7.20
2015,10,16,04,10,7.20
2015,10,16,04,11,7.20
2015,10,16,04,12,7.20
2015,10,16,04,13,7.20
2015,10,16,04,14,7.20
2015,10,16,04,15,7.20
2015,10,16,04,16,7.20
2015,10,16,04,17,7.30
2015,10,16,04,18,7.30
2015,10,16,04,19,7.30
2015,10,16,04,20,7.30
2015,10,16,04,21,7.40
2015,10,16,04,22,7.30
2015,10,16,04,23,7.30
2015,10,16,04,24,7.30
2015,10,16,04,25,7.30
2015,10,16,04,26,7.20
2015,10,16,04,27,7.20
2015,10,16,04,28,7.20
2015,10,16,04,29,7.20
2015,10,16,04,30,7.20
2015,10,16,04,31,7.20
2015,10,16,04,32,7.20
2015,10,16,04,33,7.20
2015,10,16,04,34,7.20
2015,10,16,04,35,7.20
2015,10,16,04,36,7.20
2015,10,16,04,37,7.20
2015,10,16,04,38,7.20
2015,10,16,04,39,7.20
2015,10,16,04,40,7.20
2015,10,16,04,41,7.20
2015,10,16,04,42,7.20
2015,10,16,04,43,7.20
2015,10,16,04,44,7.20
2015,10,16,04,45,7.20
2015,10,16,04,46,7.20
2015,10,16,04,47,7.20
2015,10,16,04,48,7.20
2015,10,16,04,49,7.20
2015,10,16,04,50,7.20
2015,10,16,04,51,7.20
2015,10,16,04,52,7.20
2015,10,16,04,53,7.10
2015,10,16,04,54,7.10
2015,10,16,04,55,7.10
2015,10,16,04,56,7.10
2015,10,16,04,57,7.10
2015,10,16,04,58,7.10
2015,10,16,04,59,7.10
2015,10,16,05,00,7.10
2015,10,16,05,01,7.10
2015,10,16,05,02,7.20
2015,10,16,05,03,7.20
2015,10,16,05,04,7.20
2015,10,16,05,05,7.20
2015,10,16,05,06,7.10
2015,10,16,05,07,7.10
2015,10,16,05,08,7.10
2015,10,16,05,09,7.10
2015,10,16,05,10,7.20
2015,10,16,05,11,7.20
2015,10,16,05,12,7.20
2015,10,16,05,13,7.20
2015,10,16,05,14,7.20
2015,10,16,05,15,7.30
2015,10,16,05,16,7.30
2015,10,16,05,17,7.30
2015,10,16,05,18,7.20
2015,10,16,05,19,7.10
2015,10,16,05,20,7.10
2015,10,16,05,21,7.00
2015,10,16,05,22,7.00
2015,10,16,05,23,7.00
2015,10,16,05,24,7.00
2015,10,16,05,25,7.00
2015,10,16,05,26,7.10
2015,10,16,05,27,7.10
2015,10,16,05,28,7.10
2015,10,16,05,29,7.10
2015,10,16,05,30,7.20
2015,10,16,05,31,7.20
2015,10,16,05,32,7.20
2015,10,16,05,33,7.10
2015,10,16,05,34,7.10
2015,10,16,05,35,7.00
2015,10,16,05,36,7.00
2015,10,16,05,37,6.90
2015,10,16,05,38,7.00
2015,10,16,05,39,7.00
2015,10,16,05,40,7.10
2015,10,16,05,41,7.10
2015,10,16,05,42,7.10
2015,10,16,05,43,7.20
2015,10,16,05,44,7.20
2015,10,16,05,45,7.30
2015,10,16,05,46,7.30
2015,10,16,05,47,7.30
2015,10,16,05,48,7.30
2015,10,16,05,49,7.30
2015,10,16,05,50,7.20
2015,10,16,05,51,7.20
2015,10,16,05,52,7.20
2015,10,16,05,53,7.10
2015,10,16,05,54,7.10
2015,10,16,05,55,7.10
2015,10,16,05,56,7.20
2015,10,16,05,57,7.20
2015,10,16,05,58,7.20
2015,10,16,05,59,7.20
2015,10,16,06,00,7.20
2015,10,16,06,01,7.20
2015,10,16,06,02,7.20
2015,10,16,06,03,7.20
2015,10,16,06,04,7.20
2015,10,16,06,05,7.20
2015,10,16,06,06,7.20
2015,10,16,06,07,7.20
2015,10,16,06,08,7.20
2015,10,16,06,09,7.20
2015,10,16,06,10,7.20
2015,10,16,06,11,7.20
2015,10,16,06,12,7.20
2015,10,16,06,13,7.20
2015,10,16,06,14,7.20
2015,10,16,06,15,7.20
2015,10,16,06,16,7.20
2015,10,16,06,17,7.10
2015,10,16,06,18,7.10
2015,10,16,06,19,7.10
2015,10,16,06,20,7.10
2015,10,16,06,21,7.10
2015,10,16,06,22,7.10
2015,10,16,06,23,7.10
2015,10,16,06,24,7.20
2015,10,16,06,25,7.20
2015,10,16,06,26,7.20
2015,10,16,06,27,7.30
2015,10,16,06,28,7.30
2015,10,16,06,29,7.20
2015,10,16,06,30,7.20
2015,10,16,06,31,7.20
2015,10,16,06,32,7.10
2015,10,16,06,33,7.10
2015,10,16,06,34,7.00
2015,10,16,06,35,7.00
2015,10,16,06,36,6.90
2015,10,16,06,37,6.90
2015,10,16,06,38,6.90
2015,10,16,06,39,6.90
2015,10,16,06,40,6.90
2015,10,16,06,41,6.90
2015,10,16,06,42,7.00
2015,10,16,06,43,7.00
2015,10,16,06,44,6.90
2015,10,16,06,45,6.90
2015,10,16,06,46,6.90
2015,10,16,06,47,6.90
2015,10,16,06,48,6.90
2015,10,16,06,49,7.00
2015,10,16,06,50,7.00
2015,10,16,06,51,7.00
2015,10,16,06,52,7.00
2015,10,16,06,53,7.00
2015,10,16,06,54,7.00
2015,10,16,06,55,7.00
2015,10,16,06,56,7.00
2015,10,16,06,57,6.90
2015,10,16,06,58,6.90
2015,10,16,06,59,6.90
2015,10,16,07,00,6.90
2015,10,16,07,01,6.90
2015,10,16,07,02,6.90
2015,10,16,07,03,6.90
2015,10,16,07,04,6.90
2015,10,16,07,05,6.90
2015,10,16,07,06,6.90
2015,10,16,07,07,7.00
2015,10,16,07,08,7.00
2015,10,16,07,09,7.00
2015,10,16,07,10,6.90
2015,10,16,07,11,6.90
2015,10,16,07,12,6.90
2015,10,16,07,13,6.90
2015,10,16,07,14,6.90
2015,10,16,07,15,6.90
2015,10,16,07,16,6.90
2015,10,16,07,17,6.90
2015,10,16,07,18,6.80
2015,10,16,07,19,6.80
2015,10,16,07,20,6.80
2015,10,16,07,21,6.80
2015,10,16,07,22,6.80
2015,10,16,07,23,6.70
2015,10,16,07,24,6.80
2015,10,16,07,25,6.80
2015,10,16,07,26,6.90
2015,10,16,07,27,6.90
2015,10,16,07,28,6.90
2015,10,16,07,29,6.90
2015,10,16,07,30,6.90
2015,10,16,07,31,6.80
2015,10,16,07,32,6.80
2015,10,16,07,33,6.90
2015,10,16,07,34,6.90
2015,10,16,07,35,6.90
2015,10,16,07,36,6.90
2015,10,16,07,37,6.80
2015,10,16,07,38,6.80
2015,10,16,07,39,6.80
2015,10,16,07,40,6.90
2015,10,16,07,41,6.90
2015,10,16,07,42,6.90
2015,10,16,07,43,6.90
2015,10,16,07,44,6.90
2015,10,16,07,45,6.90
2015,10,16,07,46,6.90
2015,10,16,15,16,12.60
2015,10,16,15,17,16.40
2015,10,16,15,18,16.40
2015,10,16,15,19,16.40
2015,10,16,15,20,16.50
2015,10,16,15,21,16.50
2015,10,16,15,22,16.50
2015,10,16,15,23,16.40
2015,10,16,15,24,16.40
2015,10,16,15,25,16.40
2015,10,16,15,26,16.30
2015,10,16,15,27,16.40
2015,10,16,15,28,16.40
2015,10,16,15,29,16.40
2015,10,16,15,30,16.50
2015,10,16,15,31,16.60
2015,10,16,15,32,16.70
2015,10,16,15,33,16.70
2015,10,16,15,34,16.80
2015,10,16,15,35,16.80
2015,10,16,15,36,16.80
2015,10,16,15,37,16.80
2015,10,16,15,38,16.80
2015,10,16,15,39,16.70
2015,10,16,15,40,16.70
2015,10,16,15,41,16.70
2015,10,16,15,42,16.70
2015,10,16,15,43,16.70
2015,10,16,15,44,16.70
2015,10,16,15,45,16.70
2015,10,16,15,46,16.70
2015,10,16,15,47,16.60
2015,10,16,15,48,16.60
2015,10,16,15,49,16.60
2015,10,16,15,50,16.60
2015,10,16,15,51,16.60
2015,10,16,15,52,16.50
2015,10,16,15,53,16.50
2015,10,16,15,54,16.50
2015,10,16,15,55,16.50
2015,10,16,15,56,16.40
2015,10,16,15,57,16.40
2015,10,16,15,58,16.30
2015,10,16,15,59,16.20
2015,10,16,16,00,16.10
2015,10,16,16,01,16.00
2015,10,16,16,02,15.90
2015,10,16,16,03,15.80
2015,10,16,16,04,15.70
2015,10,16,16,05,15.60
2015,10,16,16,06,15.60
2015,10,16,16,07,15.50
2015,10,16,16,08,15.40
2015,10,16,16,09,15.30
2015,10,16,16,10,15.20
2015,10,16,16,11,15.10
2015,10,16,16,12,15.10
2015,10,16,16,13,15.00
2015,10,16,16,14,15.00
2015,10,16,16,15,14.90
2015,10,16,16,16,14.90
2015,10,16,16,17,14.80
2015,10,16,16,18,14.70
2015,10,16,16,19,14.70
2015,10,16,16,20,14.60
2015,10,16,16,21,14.60
2015,10,16,16,22,14.50
2015,10,16,16,23,14.40
2015,10,16,16,24,14.40
2015,10,16,16,25,14.40
2015,10,16,16,26,14.40
2015,10,16,16,27,14.40
2015,10,16,16,28,14.40
2015,10,16,16,29,14.40
2015,10,16,16,30,14.40
2015,10,16,16,31,14.40
2015,10,16,16,32,14.40
2015,10,16,16,33,14.40
2015,10,16,16,34,14.50
2015,10,16,16,35,14.50
2015,10,16,16,36,14.50
2015,10,16,16,37,14.60
2015,10,16,16,38,14.60
2015,10,16,16,39,14.60
2015,10,16,16,40,14.60
2015,10,16,16,41,14.70
2015,10,16,16,42,14.70
2015,10,16,16,43,14.70
2015,10,16,16,44,14.70
2015,10,16,16,45,14.70
2015,10,16,16,46,14.70
2015,10,16,16,47,14.70
2015,10,16,16,48,14.70
2015,10,16,16,49,14.70
2015,10,16,16,50,14.60
2015,10,16,16,51,14.60
2015,10,16,16,52,14.50
2015,10,16,16,53,14.40
2015,10,16,16,54,14.40
2015,10,16,16,55,14.30
2015,10,16,16,56,14.30
2015,10,16,16,57,14.30
2015,10,16,16,58,14.30
2015,10,16,16,59,14.20
2015,10,16,17,00,14.20
2015,10,16,17,01,14.20
2015,10,16,17,02,14.20
2015,10,16,17,03,14.10
2015,10,16,17,04,14.10
2015,10,16,17,05,14.10
2015,10,16,17,06,14.10
2015,10,16,17,07,14.00
2015,10,16,17,08,14.00
2015,10,16,17,09,14.00
2015,10,16,17,10,14.00
2015,10,16,17,11,13.90
2015,10,16,17,12,13.90
2015,10,16,17,13,13.90
2015,10,16,17,14,13.80
2015,10,16,17,15,13.80
2015,10,16,17,16,13.80
2015,10,16,17,17,13.80
2015,10,16,17,18,13.80
2015,10,16,17,19,13.80
2015,10,16,17,20,13.70
2015,10,16,17,21,13.70
2015,10,16,17,22,13.60
2015,10,16,17,23,13.50
2015,10,16,17,24,13.40
2015,10,16,17,25,13.30
2015,10,16,17,26,13.10
2015,10,16,17,27,13.10
2015,10,16,17,28,13.00
2015,10,16,17,29,12.90
2015,10,16,17,30,12.80
2015,10,16,17,31,12.80
2015,10,16,17,32,12.70
2015,10,16,17,33,12.70
2015,10,16,17,34,12.60
2015,10,16,17,35,12.60
2015,10,16,17,36,12.50
2015,10,16,17,37,12.50
2015,10,16,17,38,12.40
2015,10,16,17,39,12.40
2015,10,16,17,40,12.30
2015,10,16,17,41,12.20
2015,10,16,17,42,12.20
2015,10,16,17,43,12.10
2015,10,16,17,44,12.10
2015,10,16,17,45,12.00
2015,10,16,17,46,11.90
2015,10,16,17,47,11.90
2015,10,16,17,48,11.80
2015,10,16,17,49,11.80
2015,10,16,17,50,11.70
2015,10,16,17,51,11.70
2015,10,16,17,52,11.70
2015,10,16,17,53,11.70
2015,10,16,17,54,11.70
2015,10,16,17,55,11.70
2015,10,16,17,56,11.70
2015,10,16,17,57,11.60
2015,10,16,17,58,11.60
2015,10,16,17,59,11.50
2015,10,16,18,00,11.50
2015,10,16,18,01,11.50
2015,10,16,18,02,11.40
2015,10,16,18,03,11.40
2015,10,16,18,04,11.40
2015,10,16,18,05,11.30
2015,10,16,18,06,11.20
2015,10,16,18,07,11.20
2015,10,16,18,08,11.20
2015,10,16,18,09,11.20
2015,10,16,18,10,11.20
2015,10,16,18,11,11.20
2015,10,16,18,12,11.20
2015,10,16,18,13,11.20
2015,10,16,18,14,11.20
2015,10,16,18,15,11.20
2015,10,16,18,16,11.20
2015,10,16,18,17,11.20
2015,10,16,18,18,11.20
2015,10,16,18,19,11.10
2015,10,16,18,20,11.10
2015,10,16,18,21,11.20
2015,10,16,18,22,11.20
2015,10,16,18,23,11.20
2015,10,16,18,24,11.20
2015,10,16,18,25,11.10
2015,10,16,18,26,11.00
2015,10,16,18,27,11.00
2015,10,16,18,28,10.90
2015,10,16,18,29,10.90
2015,10,16,18,30,10.80
2015,10,16,18,31,10.80
2015,10,16,18,32,10.80
2015,10,16,18,33,10.70
2015,10,16,18,34,10.70
2015,10,16,18,35,10.70
2015,10,16,18,36,10.70
2015,10,16,18,37,10.70
2015,10,16,18,38,10.70
2015,10,16,18,39,10.70
2015,10,16,18,40,10.70
2015,10,16,18,41,10.70
2015,10,16,18,42,10.70
2015,10,16,18,43,10.70
2015,10,16,18,44,10.60
2015,10,16,18,45,10.60
2015,10,16,18,46,10.60
2015,10,16,18,47,10.50
2015,10,16,18,48,10.50
2015,10,16,18,49,10.50
2015,10,16,18,50,10.50
2015,10,16,18,51,10.60
2015,10,16,18,52,10.60
2015,10,16,18,53,10.60
2015,10,16,18,54,10.60
2015,10,16,18,55,10.60
2015,10,16,18,56,10.60
2015,10,16,18,57,10.60
2015,10,16,18,58,10.70
2015,10,16,18,59,10.60
2015,10,16,19,00,10.60
2015,10,16,19,01,10.50
2015,10,16,19,02,10.50
2015,10,16,19,03,10.50
2015,10,16,19,04,10.50
2015,10,16,19,05,10.50
2015,10,16,19,06,10.50
2015,10,16,19,07,10.50
2015,10,16,19,08,10.50
2015,10,16,19,09,10.50
2015,10,16,19,10,10.60
2015,10,16,19,11,10.60
2015,10,16,19,12,10.60
2015,10,16,19,13,10.60
2015,10,16,19,14,10.60
2015,10,16,19,15,10.60
2015,10,16,19,16,10.60
2015,10,16,19,17,10.60
2015,10,16,19,18,10.60
2015,10,16,19,19,10.60
2015,10,16,19,20,10.60
2015,10,16,19,21,10.60
2015,10,16,19,22,10.60
2015,10,16,19,23,10.60
2015,10,16,19,24,10.60
2015,10,16,19,25,10.60
2015,10,16,19,26,10.60
2015,10,16,19,27,10.60
2015,10,16,19,28,10.60
2015,10,16,19,29,10.60
2015,10,16,19,30,10.60
2015,10,16,19,31,10.60
2015,10,16,19,32,10.60
2015,10,16,19,33,10.60
2015,10,16,19,34,10.60
2015,10,16,19,35,10.50
2015,10,16,19,36,10.50
2015,10,16,19,37,10.50
2015,10,16,19,38,10.50
2015,10,16,19,39,10.60
2015,10,16,19,40,10.60
2015,10,16,19,41,10.60
2015,10,16,19,42,10.70
2015,10,16,19,43,10.70
2015,10,16,19,44,10.70
2015,10,16,19,45,10.70
2015,10,16,19,46,10.70
2015,10,16,19,47,10.70
2015,10,16,19,48,10.70
2015,10,16,19,49,10.70
2015,10,16,19,50,10.60
2015,10,16,19,51,10.60
2015,10,16,19,52,10.60
2015,10,16,19,53,10.60
2015,10,16,19,54,10.60
2015,10,16,19,55,10.60
2015,10,16,19,56,10.60
2015,10,16,19,57,10.60
2015,10,16,19,58,10.70
2015,10,16,19,59,10.70
2015,10,16,20,00,10.70
2015,10,16,20,01,10.70
2015,10,16,20,02,10.70
2015,10,16,20,03,10.70
2015,10,16,20,04,10.70
2015,10,16,20,05,10.70
2015,10,16,20,06,10.70
2015,10,16,20,07,10.80
2015,10,16,20,08,10.80
2015,10,16,20,09,10.80
2015,10,16,20,10,10.80
2015,10,16,20,11,10.80
2015,10,16,20,12,10.80
2015,10,16,20,13,10.80
2015,10,16,20,14,10.80
2015,10,16,20,15,10.80
2015,10,16,20,16,10.80
2015,10,16,20,17,10.80
2015,10,16,20,18,10.80
2015,10,16,20,19,10.90
2015,10,16,20,20,10.90
2015,10,16,20,21,10.90
2015,10,16,20,22,10.90
2015,10,16,20,23,10.90
2015,10,16,20,24,10.90
2015,10,16,20,25,10.90
2015,10,16,20,26,10.90
2015,10,16,20,27,10.90
2015,10,16,20,28,10.90
2015,10,16,20,29,10.90
2015,10,16,20,30,10.90
2015,10,16,20,31,10.90
2015,10,16,20,32,10.90
2015,10,16,20,33,10.90
2015,10,16,20,34,10.90
2015,10,16,20,35,10.90
2015,10,16,20,36,10.90
2015,10,16,20,37,10.90
2015,10,16,20,38,10.90
2015,10,16,20,39,10.80
2015,10,16,20,40,10.80
2015,10,16,20,41,10.80
2015,10,16,20,42,10.80
2015,10,16,20,43,10.80
2015,10,16,20,44,10.80
2015,10,16,20,45,10.80
2015,10,16,20,46,10.80
2015,10,16,20,47,10.80
2015,10,16,20,48,10.80
2015,10,16,20,49,10.80
2015,10,16,20,50,10.80
2015,10,16,20,51,10.80
2015,10,16,20,52,10.80
2015,10,16,20,53,10.80
2015,10,16,20,54,10.80
2015,10,16,20,55,10.70
2015,10,16,20,56,10.70
2015,10,16,20,57,10.70
2015,10,16,20,58,10.70
2015,10,16,20,59,10.70
2015,10,16,21,00,10.70
2015,10,16,21,01,10.70
2015,10,16,21,02,10.70
2015,10,16,21,03,10.70
2015,10,16,21,04,10.70
2015,10,16,21,05,10.70
2015,10,16,21,06,10.70
2015,10,16,21,07,10.70
2015,10,16,21,08,10.60
2015,10,16,21,09,10.60
2015,10,16,21,10,10.60
2015,10,16,21,11,10.60
2015,10,16,21,12,10.60
2015,10,16,21,13,10.60
2015,10,16,21,14,10.50
2015,10,16,21,15,10.50
2015,10,16,21,16,10.40
2015,10,16,21,17,10.40
2015,10,16,21,18,10.40
2015,10,16,21,19,10.40
2015,10,16,21,20,10.30
2015,10,16,21,21,10.30
2015,10,16,21,22,10.30
2015,10,16,21,23,10.30
2015,10,16,21,24,10.30
2015,10,16,21,25,10.30
2015,10,16,21,26,10.20
2015,10,16,21,27,10.20
2015,10,16,21,28,10.20
2015,10,16,21,29,10.10
2015,10,16,21,30,10.10
2015,10,16,21,31,10.10
2015,10,16,21,32,10.00
2015,10,16,21,33,10.00
2015,10,16,21,34,10.00
2015,10,16,21,35,10.00
2015,10,16,21,36,10.10
2015,10,16,21,37,10.10
2015,10,16,21,38,10.00
2015,10,16,21,39,10.00
2015,10,16,21,40,10.00
2015,10,16,21,41,10.00
2015,10,16,21,42,10.00
2015,10,16,21,43,10.00
2015,10,16,21,44,9.90
2015,10,16,21,45,9.90
2015,10,16,21,46,9.90
2015,10,16,21,47,10.00
2015,10,16,21,48,10.00
2015,10,16,21,49,10.10
2015,10,16,21,50,10.10
2015,10,16,21,51,10.10
2015,10,16,21,52,10.00
2015,10,16,21,53,10.00
2015,10,16,21,54,10.00
2015,10,16,21,55,10.10
2015,10,16,21,56,10.10
2015,10,16,21,57,10.10
2015,10,16,21,58,10.10
2015,10,16,21,59,10.10
2015,10,16,22,00,10.10
2015,10,16,22,01,10.10
2015,10,16,22,02,10.10
2015,10,16,22,03,10.10
2015,10,16,22,04,10.10
2015,10,16,22,05,10.10
2015,10,16,22,06,10.20
2015,10,16,22,07,10.20
2015,10,16,22,08,10.20
2015,10,16,22,09,10.20
2015,10,16,22,10,10.20
2015,10,16,22,11,10.20
2015,10,16,22,12,10.20
2015,10,16,22,13,10.20
2015,10,16,22,14,10.20
2015,10,16,22,15,10.30
2015,10,16,22,16,10.30
2015,10,16,22,17,10.30
2015,10,16,22,18,10.30
2015,10,16,22,19,10.40
2015,10,16,22,20,10.40
2015,10,16,22,21,10.50
2015,10,16,22,22,10.50
2015,10,16,22,23,10.50
2015,10,16,22,24,10.50
2015,10,16,22,25,10.50
2015,10,16,22,26,10.50
2015,10,16,22,27,10.40
2015,10,16,22,28,10.40
2015,10,16,22,29,10.40
2015,10,16,22,30,10.40
2015,10,16,22,31,10.40
2015,10,16,22,32,10.40
2015,10,16,22,33,10.40
2015,10,16,22,34,10.40
2015,10,16,22,35,10.50
2015,10,16,22,36,10.50
2015,10,16,22,37,10.50
2015,10,16,22,38,10.50
2015,10,16,22,39,10.50
2015,10,16,22,40,10.50
2015,10,16,22,41,10.60
2015,10,16,22,42,10.70
2015,10,16,22,43,10.80
2015,10,16,22,44,10.80
2015,10,16,22,45,10.80
2015,10,16,22,46,10.80
2015,10,16,22,47,10.80
2015,10,16,22,48,10.80
2015,10,16,22,49,10.80
2015,10,16,22,50,10.80
2015,10,16,22,51,10.80
2015,10,16,22,52,10.70
2015,10,16,22,53,10.70
2015,10,16,22,54,10.70
2015,10,16,22,55,10.70
2015,10,16,22,56,10.70
2015,10,16,22,57,10.70
2015,10,16,22,58,10.70
2015,10,16,22,59,10.70
2015,10,16,23,00,10.60
2015,10,16,23,01,10.60
2015,10,16,23,02,10.60
2015,10,16,23,03,10.70
2015,10,16,23,04,10.70
2015,10,16,23,05,10.70
2015,10,16,23,06,10.70
2015,10,16,23,07,10.70
2015,10,16,23,08,10.70
2015,10,16,23,09,10.70
2015,10,16,23,10,10.70
2015,10,16,23,11,10.70
2015,10,16,23,12,10.70
2015,10,16,23,13,10.80
2015,10,16,23,14,10.80
2015,10,16,23,15,10.80
2015,10,16,23,16,10.90
2015,10,16,23,17,10.90
2015,10,16,23,18,10.90
2015,10,16,23,19,10.90
2015,10,16,23,20,10.90
2015,10,16,23,21,10.90
2015,10,16,23,22,10.90
2015,10,16,23,23,10.90
2015,10,16,23,24,10.90
2015,10,16,23,25,10.90
2015,10,16,23,26,10.90
2015,10,16,23,27,10.80
2015,10,16,23,28,10.80
2015,10,16,23,29,10.80
2015,10,16,23,30,10.70
2015,10,16,23,31,10.70
2015,10,16,23,32,10.70
2015,10,16,23,33,10.70
2015,10,16,23,34,10.70
2015,10,16,23,35,10.70
2015,10,16,23,36,10.80
2015,10,16,23,37,10.80
2015,10,16,23,38,10.80
2015,10,16,23,39,10.80
2015,10,16,23,40,10.70
2015,10,16,23,41,10.70
2015,10,16,23,42,10.80
2015,10,16,23,43,10.80
2015,10,16,23,44,10.80
2015,10,16,23,45,10.80
2015,10,16,23,46,10.80
2015,10,16,23,47,10.80
2015,10,16,23,48,10.80
2015,10,16,23,49,10.80
2015,10,16,23,50,10.70
2015,10,16,23,51,10.70
2015,10,16,23,52,10.70
2015,10,16,23,53,10.70
2015,10,16,23,54,10.70
2015,10,16,23,55,10.80
2015,10,16,23,56,10.80
2015,10,16,23,57,10.80
2015,10,16,23,58,10.80
2015,10,16,23,59,10.80
